DW8953 Weather Reports


Display with metric or nautical units.
time (UTC)temp
F
wind
direction
speed
MPH
gust
MPH
rain 1hr
in
rain 24hr
in
rain mn
in
humidity
%
barometer
mb
20260906070103 78 0 0.0 0.0 0.00 0.00 0.00 6 1014.7
20260906064557 77 0 0.0 0.0 0.00 0.00 0.00 100 1014.0
20260906063058 77 0 0.0 0.0 0.00 0.00 0.00 100 1013.8
20260906061554 77 0 0.0 0.0 0.00 0.00 0.00 100 1013.6
20260906060107 77 0 0.0 0.0 0.00 0.00 0.00 100 1013.4
20260906054614 77 0 0.0 0.0 0.00 0.00 0.00 100 1013.6
20260906053101 77 0 0.0 0.0 0.00 0.00 0.00 100 1013.5
20260906051558 77 0 0.0 0.0 0.00 0.00 0.00 100 1013.1
20260906050108 77 0 0.0 0.0 0.00 0.00 0.00 100 1013.0
20260906044600 77 0 0.0 0.0 0.00 0.00 0.00 100 1013.4
20260906043052 77 0 0.0 0.0 0.00 0.00 0.00 100 1013.6
20260906041551 77 0 0.0 0.0 0.00 0.00 0.00 100 1013.6
20260906040103 78 0 0.0 0.0 0.00 0.00 0.00 100 1013.5
20260906034601 78 0 0.0 0.0 0.00 0.00 0.00 100 1013.6
20260906033051 78 0 0.0 0.0 0.00 0.00 0.00 100 1013.6
20260906031608 78 0 0.0 0.0 0.00 0.00 0.00 100 1013.4
20260906030056 79 0 0.0 0.0 0.00 0.00 0.00 1 1013.4
20260906024608 79 0 0.0 0.0 0.00 0.00 0.00 7 1013.4
20260906023104 79 0 0.0 0.0 0.00 0.00 0.00 17 1013.1
20260906021552 80 0 0.0 0.0 0.00 0.00 0.00 25 1012.9
20260906020058 80 0 0.0 0.0 0.00 0.00 0.00 33 1012.7
20260906014555 81 0 0.0 0.0 0.00 0.00 0.00 39 1012.5
20260906013104 82 0 0.0 0.0 0.00 0.00 0.00 44 1012.2
20260906011555 82 0 0.0 0.0 0.00 0.00 0.00 53 1012.4
20260906010054 83 0 0.0 0.0 0.00 0.00 0.00 58 1012.1
20260906004550 84 0 0.0 0.0 0.00 0.00 0.00 59 1011.8
20260906003056 85 0 0.0 0.0 0.00 0.00 0.00 61 1012.0
20260906001605 86 0 0.0 0.0 0.00 0.00 0.00 61 1012.3
20260906000059 88 0 0.0 0.0 0.00 0.00 0.00 60 1012.7
20260905234605 92 0 0.0 0.0 0.00 0.00 0.00 57 1012.4
20260905233059 94 0 0.0 0.0 0.00 0.00 0.00 58 1011.9
20260905231554 94 0 0.0 0.0 0.00 0.00 0.00 59 1011.7
20260905230059 95 0 0.0 0.0 0.00 0.00 0.00 59 1011.7
20260905224554 96 0 0.0 0.0 0.00 0.00 0.00 58 1011.6
20260905223101 97 0 0.0 0.0 0.00 0.00 0.00 55 1011.7
20260905221553 98 0 0.0 0.0 0.00 0.00 0.00 56 1011.7
20260905220104 98 0 0.0 0.0 0.00 0.00 0.00 54 1011.8
20260905214558 99 0 0.0 0.0 0.00 0.00 0.00 53 1011.8
20260905213059 98 0 0.0 0.0 0.00 0.00 0.00 50 1011.7
20260905211606 98 0 0.0 0.0 0.00 0.00 0.00 50 1011.8
20260905210105 97 0 0.0 0.0 0.00 0.00 0.00 55 1011.8
20260905204600 97 0 0.0 0.0 0.00 0.00 0.00 54 1012.0
20260905203059 97 0 0.0 0.0 0.00 0.00 0.00 55 1012.2
20260905201556 97 0 0.0 0.0 0.00 0.00 0.00 53 1012.5
20260905200105 97 0 0.0 0.0 0.00 0.00 0.00 52 1012.6
20260905194605 97 0 0.0 0.0 0.00 0.00 0.00 58 1012.9
20260905193059 96 0 0.0 0.0 0.00 0.00 0.00 50 1013.1
20260905191550 96 0 0.0 0.0 0.00 0.00 0.00 56 1013.4
20260905190053 96 0 0.0 0.0 0.00 0.00 0.00 54 1013.5
20260905184604 95 0 0.0 0.0 0.00 0.00 0.00 57 1013.9
20260905183057 95 0 0.0 0.0 0.00 0.00 0.00 57 1014.0
20260905181602 94 0 0.0 0.0 0.00 0.00 0.00 56 1014.2
20260905180105 94 0 0.0 0.0 0.00 0.00 0.00 56 1014.3
20260905174556 94 0 0.0 0.0 0.00 0.00 0.00 57 1014.3
20260905173105 93 0 0.0 0.0 0.00 0.00 0.00 58 1014.5
20260905171558 93 0 0.0 0.0 0.00 0.00 0.00 57 1014.6
20260905170054 92 0 0.0 0.0 0.00 0.00 0.00 57 1014.8
20260905164553 92 0 0.0 0.0 0.00 0.00 0.00 57 1015.0
20260905163058 91 0 0.0 0.0 0.00 0.00 0.00 57 1015.4
20260905161555 91 0 0.0 0.0 0.00 0.00 0.00 57 1015.6
20260905160055 90 0 0.0 0.0 0.00 0.00 0.00 56 1015.6
20260905154608 89 0 0.0 0.0 0.00 0.00 0.00 42 1015.7
20260905153055 87 0 0.0 0.0 0.00 0.00 0.00 25 1015.8
20260905151551 84 0 0.0 0.0 0.00 0.00 0.00 2 1015.8
20260905150104 82 0 0.0 0.0 0.00 0.00 0.00 100 1015.8
20260905144600 80 0 0.0 0.0 0.00 0.00 0.00 100 1015.7
20260905143104 79 0 0.0 0.0 0.00 0.00 0.00 100 1015.9
20260905141558 78 0 0.0 0.0 0.00 0.00 0.00 100 1016.1
20260905140057 77 0 0.0 0.0 0.00 0.00 0.00 100 1016.1
20260905134605 77 0 0.0 0.0 0.00 0.00 0.00 100 1016.2
20260905133101 76 0 0.0 0.0 0.00 0.00 0.00 100 1016.3
20260905131608 75 0 0.0 0.0 0.00 0.00 0.00 100 1016.3
20260905124557 74 0 0.0 0.0 0.00 0.00 0.00 100 1016.3
20260905123048 74 0 0.0 0.0 0.00 0.00 0.00 100 1016.3
20260905121556 73 0 0.0 0.0 0.00 0.00 0.00 100 1016.3
20260905120056 73 0 0.0 0.0 0.00 0.00 0.00 100 1015.9
20260905114559 73 0 0.0 0.0 0.00 0.00 0.00 100 1015.8
20260905113055 73 0 0.0 0.0 0.00 0.00 0.00 100 1015.5
20260905111553 73 0 0.0 0.0 0.00 0.00 0.00 100 1015.3
20260905110107 73 0 0.0 0.0 0.00 0.00 0.00 100 1015.2
20260905104558 73 0 0.0 0.0 0.00 0.00 0.00 100 1015.1
20260905103055 73 0 0.0 0.0 0.00 0.00 0.00 100 1014.8
20260905101608 73 0 0.0 0.0 0.00 0.00 0.00 100 1014.7
20260905100053 73 0 0.0 0.0 0.00 0.00 0.00 100 1014.8
20260905094600 73 0 0.0 0.0 0.00 0.00 0.00 100 1014.7
20260905093057 74 0 0.0 0.0 0.00 0.00 0.00 100 1014.6
20260905091602 74 0 0.0 0.0 0.00 0.00 0.00 100 1014.5
20260905090058 74 0 0.0 0.0 0.00 0.00 0.00 100 1014.5
20260905084554 74 0 0.0 0.0 0.00 0.00 0.00 100 1014.7
20260905083051 74 0 0.0 0.0 0.00 0.00 0.00 100 1014.6
20260905081550 74 0 0.0 0.0 0.00 0.00 0.00 100 1014.5
20260905080106 74 0 0.0 0.0 0.00 0.00 0.00 100 1014.4
20260905074554 75 0 0.0 0.0 0.00 0.00 0.00 100 1014.1
20260905073055 75 0 0.0 0.0 0.00 0.00 0.00 100 1014.2
20260905071551 75 0 0.0 0.0 0.00 0.00 0.00 100 1014.4